FLOCK 2P-2

Last updated on Feb. 14, 2018, 4:19 p.m. UTC

1 41609U 16040L   18044.83078777  .00001938  00000-0  83075-4 0  9993
2 41609  97.4293 110.4614 0009004 312.3905  47.6569 15.23944331 91405
UTC
Height (km)
Latitude
Longitude
Inclination
Orbital Period
UTC large
Height (km)
Speed (km/s)
/
Latitude / Longitude
Inclination (degrees)
Orbital Period (minutes)
Azimuth
Elevation
Range (km)
Doppler Factor
iOS Compass Heading
iOS Angle